Lid_Strength_Index
2 2 2 2 2 3 3 4 4 5 5 5 4 5 4 4 5 5 5 5 5 5 4 3 3 2 4 5 6 0 -3 -2 4 5 6 6 9 10 11 9 9 10 8 8 8 8 8
2 3 2 2 2 2 3 3 3 4 4 5 4 5 4 5 5 4 4 4 5 4 3 3 2 2 4 8 2 1 3 5 5 6 6 6 8 7 9 8 10 8 8 8 8 9 8
2 2 2 2 2 3 4 3 3 4 4 5 5 5 5 5 5 4 3 3 3 3 3 2 2 2 4 5 2 3 4 5 4 4 6 5 6 7 7 8 7 8 10 8 8 9 9
3 3 2 2 2 3 4 4 4 4 4 4 5 5 5 5 4 4 4 4 4 3 2 2 2 2 6 1 2 3 4 4 4 4 5 4 5 6 8 7 8 10 11 14 10 8 8
3 3 3 3 2 3 4 4 4 4 4 4 5 5 5 5 5 4 4 4 5 3 1 1 3 4 6 2 3 2 3 4 4 5 5 3 6 7 7 10 12 12 14 13 11 8 8
2 3 3 3 2 3 4 4 4 4 4 5 5 5 5 5 5 5 5 5 3 4 1 1 1 5 4 5 4 2 3 3 4 5 5 6 7 10 10 12 15 13 13 12 10 9 7
2 2 3 4 4 3 3 3 4 4 4 5 5 5 5 5 5 5 6 5 5 6 4 5 5 4 4 2 3 3 3 3 4 5 9 8 11 12 10 9 9 10 11 10 9 8 8
3 2 3 4 4 4 4 4 4 4 4 5 4 3 4 4 6 5 7 5 3 5 7 3 3 3 2 3 5 4 3 6 6 9 8 10 11 8 7 8 8 9 10 11 9 8 8
3 3 2 3 3 4 4 4 4 4 4 5 5 4 3 4 5 5 5 3 2 3 8 5 4 4 4 5 6 6 4 5 7 8 9 10 9 7 8 9 9 9 11 11 10 8 8
2 2 3 2 2 3 3 3 4 4 4 5 5 5 3 5 5 6 6 1 2 2 10 7 6 5 4 5 6 4 3 5 7 9 8 9 8 8 9 8 9 11 8 8 9 11 14
2 2 2 2 3 3 3 3 4 4 4 5 6 6 4 4 7 6 4 2 2 3 17 7 7 4 4 7 6 6 3 5 8 8 8 9 9 9 9 8 7 9 7 9 8 11 13
1 2 2 2 2 3 3 3 3 4 4 5 6 6 5 4 4 3 2 1 3 11 15 9 7 7 7 6 6 5 5 5 6 7 7 8 6 7 7 7 7 6 8 9 11 13 15
1 1 2 2 2 2 3 3 3 3 4 4 5 6 7 4 6 4 4 4 11 14 7 9 9 7 7 7 7 7 7 8 9 11 11 8 8 7 6 9 8 8 12 15 16 16 18
1 1 1 2 2 2 3 3 4 4 4 5 5 7 6 4 3 3 3 7 14 9 9 6 7 7 8 7 7 7 8 9 7 8 10 12 12 8 6 8 10 10 12 15 18 17 15
1 1 1 2 2 2 3 3 4 4 4 5 6 5 6 2 2 3 6 12 11 8 7 7 8 10 9 7 7 7 8 8 7 8 11 11 10 7 6 7 9 11 13 10 13 13 15
2 0 1 1 2 2 2 3 3 4 4 5 8 7 6 3 0 4 8 10 8 6 6 6 9 8 10 9 9 9 9 7 7 6 7 9 11 8 7 7 7 10 9 13 14 17 19
2 2 1 1 1 2 2 2 3 4 5 5 6 5 2 1 1 5 10 9 6 6 5 7 8 9 9 9 9 9 8 7 6 7 7 9 10 10 8 10 10 10 11 11 12 13 16
2 2 1 1 1 1 2 3 3 4 6 5 4 8 1 1 7 7 9 6 6 6 5 6 6 7 8 8 9 9 8 7 5 6 8 8 10 13 11 7 6 9 11 11 14 14 13
2 2 2 2 1 1 2 3 3 4 5 7 6 6 3 2 10 9 6 6 5 6 6 6 7 6 6 8 10 8 8 5 5 6 9 9 11 14 12 10 8 10 9 9 10 11 14
1 2 2 2 2 1 2 2 3 3 4 7 6 8 5 4 5 7 8 8 8 5 5 5 6 6 7 8 8 9 8 5 5 6 4 7 11 12 15 13 10 11 9 9 11 14 13
1 1 1 1 2 2 2 2 3 4 4 7 5 7 6 9 8 7 7 7 8 8 6 5 7 7 8 11 9 9 8 7 6 6 7 8 12 11 10 8 9 9 9 9 11 10 13
1 0 -0 1 1 2 3 1 2 3 4 7 8 7 5 6 6 7 8 8 8 7 6 7 8 7 7 10 9 11 9 9 9 8 9 9 13 11 12 9 9 9 9 9 9 9 10
2 1 0 -0 0 1 2 3 2 2 5 7 4 3 5 7 7 8 8 8 7 6 6 5 6 7 8 8 6 7 7 7 8 9 10 10 11 13 15 11 11 13 10 9 9 8 9
2 2 1 1 0 0 1 3 3 2 3 7 6 6 7 9 7 7 6 7 7 6 7 5 5 8 6 4 4 6 7 7 7 8 7 11 12 12 15 13 19 11 7 7 8 8 8
3 2 2 2 1 -0 0 1 3 3 2 5 6 6 6 9 7 7 6 7 6 5 6 6 6 5 4 6 9 11 11 11 9 7 9 8 11 14 16 16 12 10 8 9 10 10 8
2 3 2 2 1 0 0 0 1 3 3 4 5 4 6 7 8 5 7 6 8 8 7 6 4 4 5 8 10 14 14 11 12 10 7 9 9 12 14 17 18 11 7 6 7 13 7
2 2 2 2 2 1 -0 0 0 1 3 6 5 2 3 7 5 5 7 7 6 7 8 7 7 7 5 9 11 12 13 9 13 13 13 13 13 14 15 16 13 8 7 5 13 14 7
2 2 2 2 2 2 0 -0 0 1 1 5 7 4 3 6 5 3 3 6 6 7 9 7 8 7 9 11 11 11 11 10 11 10 12 13 14 14 13 15 16 6 7 12 10 7 6
2 2 2 2 2 2 1 -0 -0 1 1 3 6 4 2 4 4 3 3 2 2 3 6 6 8 8 8 10 10 10 11 10 11 14 9 12 10 12 11 12 8 7 7 6 6 6 7